Find Starlink 5062

NORAD ID: 55637 Int'l Des: 2023-021 Owner: SPXS Country: US Constellation: starlink operational
LEOCIRCULAR

实时位置

正在加载3D地球...

关于 Starlink 5062

正在加载描述...

即将过境

Passes for default location (London). Set your location on the main map for personalized predictions.

高度历史

Loading altitude history...

两行轨道根数

1 55637U 23021K 26121.86405731 .00001278 00000-0 11494-3 0 9990
2 55637 70.0006 50.4971 0002826 264.5692 95.5145 14.98320751176754
Epoch: May 1, 2026 • Age: 10 hours

当前状态

高度 582.9 km
速度 7.57 km/s
星下点 57.19°N, 123.93°E
发射日期 Feb 17, 2023
运行时间 3.2 years
类型 internet

技术详情

分类 Payload
质量 305.00 kg
干质量 290.00 kg
总质量 305.00 kg
长度 0.20 m
直径 2.80 m
跨度 9.00 m
形状 Box + pan
制造商 SPXS
平台类型 Starlink
阶段状态 In Orbit
所有者/国家 SPXS/US

Most Searched